Buoy 41730

sailwx.info

Track history (hours):
 
Tides and Currents Weather Stations Pressure Air Temp Water Temp Dewpoint Dewpoint Depression Visibility Wind Speed Wind Dir Waves Ship Positions

Drifting buoy 41730

Last reported at 2017-Oct-22 18:00 UTC. Time now 2017-Oct-22 19:13 UTC.
Position N 31°18' W 078°28'.

Barometer 1023.3 mb
Water temperature 27.6 ° C

Date/timePositionNaut miles runAvg speedWind from/ knotsBaromVisibWave heightAir tempDewpointWater temp
2017-Oct-22 18:00N 31°18' W 078°28'2 1.7 1023.3 27.6
2017-Oct-22 17:00N 31°17' W 078°29'2 1.7 1024.0 27.6
2017-Oct-22 16:00N 31°17' W 078°31'2 2.0 1024.5 27.6
2017-Oct-22 15:00N 31°16' W 078°33'2 1.6 1024.7 27.6
2017-Oct-22 14:00N 31°14' W 078°34'1 1.3 1024.6 27.6
2017-Oct-22 13:00N 31°13' W 078°35'1 1.3 1024.0 27.6
2017-Oct-22 12:00N 31°12' W 078°35'1 0.8 1023.5 27.6
2017-Oct-22 11:00N 31°11' W 078°36'1 1.3 1023.1 27.5
2017-Oct-22 10:00N 31°10' W 078°37'1 0.8 1023.0 27.6
2017-Oct-22 09:00N 31°10' W 078°37'1 1.2 1022.8 27.6
2017-Oct-22 08:00N 31°09' W 078°38'1 1.2 1022.8 27.6
2017-Oct-22 07:00N 31°08' W 078°40'2 1.7 1023.3 27.7
2017-Oct-22 06:00N 31°08' W 078°41'1 1.2 1023.8 27.7
2017-Oct-22 05:00N 31°07' W 078°43'1 1.3 1024.2 27.7
2017-Oct-22 04:00N 31°06' W 078°43'1 1.3 1024.5 27.8
2017-Oct-22 03:00N 31°05' W 078°44'1 1.3 1024.6 27.8
2017-Oct-22 02:00N 31°04' W 078°44'1 0.6 1024.4 27.8
2017-Oct-22 01:00N 31°03' W 078°44'1 0.8 1023.9 27.8
2017-Oct-22 00:00N 31°02' W 078°45'1 0.6 1023.9 27.8
2017-Oct-21 23:00N 31°02' W 078°45'1 0.8 1023.6 27.8
2017-Oct-21 22:00N 31°01' W 078°46'1 1.3 1023.5 27.8
2017-Oct-21 21:00N 31°00' W 078°46'1 1.2 1023.4 27.8
2017-Oct-21 20:00N 30°59' W 078°47'1 0.8 1023.5 27.9
2017-Oct-21 19:00N 30°59' W 078°48'2 1.6 1023.4 27.9
2017-Oct-21 18:00N 30°58' W 078°49'1 1.3 1023.9 27.9
2017-Oct-21 17:00N 30°56' W 078°50'1 1.3 1024.2 27.9
2017-Oct-21 16:00N 30°55' W 078°50'1 1.3 1024.3 27.9
2017-Oct-21 15:00N 30°54' W 078°51'1 1.2 1024.2 27.9
2017-Oct-21 14:00N 30°53' W 078°51'1 1.2 1024.0 27.9
2017-Oct-21 13:00N 30°52' W 078°51'1 1.2 1023.4 27.9
2017-Oct-21 12:00N 30°50' W 078°51'1 1.2 1022.7 27.9
2017-Oct-21 11:00N 30°49' W 078°51'1 0.8 1022.3 27.9
2017-Oct-21 10:00N 30°49' W 078°52'1 1.2 1021.8 27.9
2017-Oct-21 09:00N 30°47' W 078°52'1 1.3 1021.4 27.9
2017-Oct-21 08:00N 30°46' W 078°52'1 1.3 1021.3 27.9
2017-Oct-21 07:00N 30°45' W 078°53'1 1.3 1021.8 27.9
2017-Oct-21 06:00N 30°44' W 078°53'1 1.3 1022.0 28.0
2017-Oct-21 05:00N 30°43' W 078°54'1 1.2 1022.3 27.9
2017-Oct-21 04:00N 30°41' W 078°54'1 1.2 1022.4 28.0
2017-Oct-21 03:00N 30°40' W 078°54'1 1.2 1022.3 28.0
2017-Oct-21 02:00N 30°39' W 078°54'1 1.3 1021.9 28.0
2017-Oct-21 01:00N 30°38' W 078°53'1 0.6 1021.3 28.0
2017-Oct-21 00:00N 30°37' W 078°53'1 1.2 1021.2 28.0
2017-Oct-20 23:00N 30°36' W 078°53'1 1.2 1020.7 28.0
2017-Oct-20 22:00N 30°35' W 078°53'1 1.2 1020.6 28.0
2017-Oct-20 21:00N 30°34' W 078°53'1 0.8 1020.6 28.0
2017-Oct-20 20:00N 30°33' W 078°54'1 1.3 1020.7 28.0
2017-Oct-20 19:00N 30°32' W 078°55'1 1.2 1020.9 28.0
2017-Oct-20 18:00N 30°31' W 078°55'1 1.2 1021.2 28.0
2017-Oct-20 17:00N 30°29' W 078°55'1 1.2 1022.0 27.9
2017-Oct-20 16:00N 30°28' W 078°55'2 1.8 1022.5 27.9
2017-Oct-20 15:00N 30°26' W 078°55'1 1.2 1022.6 27.9
2017-Oct-20 14:00N 30°25' W 078°55'1 1.3 1022.5 27.9
2017-Oct-20 13:00N 30°24' W 078°54'1 1.3 1021.9 27.8
2017-Oct-20 12:00N 30°23' W 078°53'2 1.8 1021.0 27.7
2017-Oct-20 11:00N 30°21' W 078°53'1 1.3 1020.8 27.7
2017-Oct-20 10:00N 30°20' W 078°53'1 1.2 1020.4 27.7
2017-Oct-20 09:00N 30°19' W 078°53'1 1.2 1020.1 27.7
2017-Oct-20 08:00N 30°17' W 078°53'1 1.2 1020.0 27.7
2017-Oct-20 07:00N 30°16' W 078°53'1 1.2 1020.4 27.7
2017-Oct-20 06:00N 30°15' W 078°53'2 1.8 1020.8 27.7
2017-Oct-20 05:00N 30°13' W 078°53'1 1.2 1020.7 27.8
2017-Oct-20 04:00N 30°12' W 078°53'1 1.3 1020.8 27.8
2017-Oct-20 03:00N 30°11' W 078°52'2 1.9 1020.7 27.8
2017-Oct-20 02:00N 30°09' W 078°52'1 1.2 1020.6 27.8
2017-Oct-20 01:00N 30°08' W 078°52'1 0.8 1020.2 27.9
2017-Oct-20 00:00N 30°07' W 078°51'1 1.3 1019.8 27.9
2017-Oct-19 23:00N 30°06' W 078°50'1 1.3 1019.4 27.9
2017-Oct-19 22:00N 30°05' W 078°50'1 0.8 1019.1 28.0
2017-Oct-19 21:00N 30°04' W 078°49'1 0.8 1018.9 28.0
2017-Oct-19 20:00N 30°04' W 078°49'1 1.2 1018.9 28.0
2017-Oct-19 19:00N 30°02' W 078°49'1 0.8 1019.1 28.0
2017-Oct-19 18:00N 30°02' W 078°48'5 1.2 1019.3 28.0
2017-Oct-19 14:00N 29°57' W 078°47'3 1.1 1020.1 27.9
2017-Oct-19 11:00N 29°54' W 078°45'4 1.1 1018.8 27.9
2017-Oct-19 07:00N 29°51' W 078°41'6 0.6 1018.7 28.0
2017-Oct-18 21:00N 29°51' W 078°34'1 1.0 1018.9 27.9
2017-Oct-18 20:00N 29°51' W 078°33'4 1.0 1018.9 27.9
2017-Oct-18 16:00N 29°54' W 078°30'2 0.7 1021.0 27.8
2017-Oct-18 13:00N 29°56' W 078°29'1 1.2 1020.3 27.9
2017-Oct-18 12:00N 29°56' W 078°28'9 1.7 1019.9 27.9
2017-Oct-18 07:00N 30°02' W 078°20'6 1.9 1018.4 28.0
2017-Oct-18 04:00N 30°06' W 078°16'2 2.4 1019.1 28.0
2017-Oct-18 03:00N 30°08' W 078°14'2 1.7 1019.2 28.0
2017-Oct-18 02:00N 30°08' W 078°12'2 2.0 1019.0 28.0
2017-Oct-18 01:00N 30°10' W 078°10'2 1.7 1018.5 28.0
2017-Oct-18 00:00N 30°10' W 078°08'2 2.4 1018.0 28.0
2017-Oct-17 23:00N 30°11' W 078°06'12 2.3 1017.4 28.1
2017-Oct-17 18:00N 30°17' W 077°54'2 2.4 1016.6 28.1
2017-Oct-17 17:00N 30°18' W 077°52'3 2.9 1017.5 28.1
2017-Oct-17 16:00N 30°20' W 077°50'2 2.1 1018.2 28.1
2017-Oct-17 15:00N 30°22' W 077°49'2 2.1 1018.0 28.1
2017-Oct-17 14:00N 30°24' W 077°47'2 2.5 1018.1 28.1
2017-Oct-17 13:00N 30°26' W 077°47'2 1.9 1017.2 28.1
2017-Oct-17 12:00N 30°28' W 077°46'4 1.9 1016.8 28.2
2017-Oct-17 10:00N 30°32' W 077°45'2 1.8 1015.4 28.2
2017-Oct-17 09:00N 30°34' W 077°45'2 1.9 1014.9 28.2
2017-Oct-17 08:00N 30°35' W 077°44'2 1.8 1014.7 27.9
2017-Oct-17 07:00N 30°37' W 077°44'4 1.8 1015.1 28.1
2017-Oct-17 05:00N 30°41' W 077°44'2 1.8 1014.4 28.3
2017-Oct-17 04:00N 30°43' W 077°44'2 1.9 1014.8 28.3
2017-Oct-17 03:00N 30°44' W 077°43'2 1.8 1014.9 28.4
2017-Oct-17 02:00N 30°46' W 077°43'2 2.4 1014.7 28.4
2017-Oct-17 01:00N 30°49' W 077°43'2 1.8 1014.4 28.4
2017-Oct-17 00:00N 30°50' W 077°43'2 1.8 1014.2 28.5
2017-Oct-16 23:00N 30°52' W 077°43'1 1.2 1013.9 28.5
2017-Oct-16 22:00N 30°53' W 077°43'1 1.3 1013.4 28.5
2017-Oct-16 21:00N 30°55' W 077°43'1 1.3 1013.3 28.6
2017-Oct-16 20:00N 30°56' W 077°42'1 0.8 1013.3 28.7
2017-Oct-16 19:00N 30°56' W 077°41'1 0.8 1013.9 28.8
2017-Oct-16 18:00N 30°57' W 077°41'1 1.2 1014.6 28.8
2017-Oct-16 17:00N 30°58' W 077°40'1 1.0 1015.3 28.7
2017-Oct-16 16:00N 30°58' W 077°38'1 1.2 1016.3 28.6
2017-Oct-16 15:00N 30°58' W 077°37'1 1.0 1016.6 28.5
2017-Oct-16 14:00N 30°58' W 077°36'2 1.5 1016.6 28.4
2017-Oct-16 13:00N 30°58' W 077°34'2 1.7 1016.5 28.4
2017-Oct-16 12:00N 30°58' W 077°32'3 1.5 1015.9 28.4
2017-Oct-16 10:00N 30°58' W 077°29'2 1.7 1015.3 28.3
2017-Oct-16 09:00N 30°57' W 077°27'2 2.1 1015.4 28.3
2017-Oct-16 08:00N 30°57' W 077°25'2 1.5 1015.3 28.3
2017-Oct-16 07:00N 30°57' W 077°23'2 2.1 1015.7 28.3
2017-Oct-16 06:00N 30°58' W 077°20'2 2.1 1016.6 28.3
2017-Oct-16 05:00N 30°58' W 077°18'2 2.0 1017.2 28.4
2017-Oct-16 04:00N 30°59' W 077°16'2 2.0 1017.9 28.4
2017-Oct-16 03:00N 31°01' W 077°14'2 2.0 1018.2 28.4
2017-Oct-16 02:00N 31°02' W 077°13'2 2.4 1018.5 28.4
2017-Oct-16 01:00N 31°04' W 077°11'2 2.4 1018.3 28.4
2017-Oct-16 00:00N 31°05' W 077°09'2 2.4 1017.9 28.3
2017-Oct-15 23:00N 31°07' W 077°07'3 2.9 1017.8 28.3
2017-Oct-15 22:00N 31°10' W 077°05'2 2.4 1017.9 28.2
2017-Oct-15 21:00N 31°11' W 077°04'3 3.2 1018.0 28.3
2017-Oct-15 20:00N 31°14' W 077°01'3 2.9 1018.3 28.4
2017-Oct-15 19:00N 31°16' W 076°59'2 2.4 1018.6 28.4
2017-Oct-15 18:00N 31°18' W 076°58'3 2.6 1019.5 28.3
2017-Oct-15 17:00N 31°20' W 076°56'3 2.9 1020.3 28.2
2017-Oct-15 16:00N 31°23' W 076°55'3 2.6 1021.1 27.8
2017-Oct-15 15:00N 31°25' W 076°53'2 2.1 1021.3 27.6
2017-Oct-15 14:00N 31°27' W 076°52'2 2.1 1021.3 27.3
2017-Oct-15 13:00N 31°29' W 076°51'2 1.9 1021.1 27.1
2017-Oct-15 12:00N 31°31' W 076°50'2 1.9 1020.7 27.2
2017-Oct-15 11:00N 31°32' W 076°50'2 1.9 1020.4 27.2
2017-Oct-15 10:00N 31°34' W 076°49'1 1.3 1020.1 26.9
2017-Oct-15 09:00N 31°35' W 076°49'1 1.3 1019.7 26.8
2017-Oct-15 08:00N 31°37' W 076°48'2 1.9 1019.6 27.2
2017-Oct-15 07:00N 31°38' W 076°47'3 1.3 1019.8 26.6
2017-Oct-15 05:00N 31°41' W 076°46'1 0.8 1021.0 26.4
2017-Oct-15 04:00N 31°41' W 076°46'1 1.3 1021.5 26.4
2017-Oct-15 03:00N 31°43' W 076°45'2 1.8 1022.0 26.5
2017-Oct-15 02:00N 31°44' W 076°45'1 1.2 1021.9 26.6
2017-Oct-15 01:00N 31°46' W 076°45'1 1.3 1021.5 26.6
2017-Oct-15 00:00N 31°47' W 076°44'1 0.6 1021.1 26.6
2017-Oct-14 23:00N 31°47' W 076°44'1 1.2 1020.6 26.8
2017-Oct-14 22:00N 31°49' W 076°44'1 1.2 1020.4 27.0
2017-Oct-14 21:00N 31°50' W 076°44'1 0.6 1020.4 26.8
2017-Oct-14 20:00N 31°50' W 076°44'1 1.3 1020.5 26.8
2017-Oct-14 19:00N 31°52' W 076°45'1 1.2 1020.7 26.8
2017-Oct-14 18:00N 31°53' W 076°45'1 1.3 1021.5 26.8
2017-Oct-14 17:00N 31°54' W 076°46'1 0.6 1022.2 26.4
2017-Oct-14 16:00N 31°55' W 076°46'1 0.6 1022.8 26.3
2017-Oct-14 15:00N 31°55' W 076°46'1 0.6 1023.1 26.2
2017-Oct-14 14:00N 31°56' W 076°46'1 0.8 1023.0 26.2
2017-Oct-14 13:00N 31°56' W 076°46'0 0.0 1022.8 26.1
2017-Oct-14 12:00N 31°56' W 076°46'1 0.8 1022.2 26.1
2017-Oct-14 11:00N 31°57' W 076°47'1 0.6 1021.7 26.1
2017-Oct-14 10:00N 31°58' W 076°47'1 0.8 1021.0 26.0
2017-Oct-14 09:00N 31°58' W 076°47'1 0.5 1020.5 26.0
2017-Oct-14 08:00N 31°58' W 076°48'0 0.0 1020.2 26.0
2017-Oct-14 07:00N 31°58' W 076°48'1 0.8 1020.4 26.1
2017-Oct-14 06:00N 31°59' W 076°49'0 0.0 1020.5 26.1
2017-Oct-14 04:00N 31°59' W 076°49'0 0.0 1021.1 26.1
2017-Oct-14 03:00N 31°59' W 076°49'1 0.8 1021.2 26.1
2017-Oct-14 02:00N 31°59' W 076°48'0 0.0 1021.0 26.1
2017-Oct-14 01:00N 31°59' W 076°48'1 0.8 1020.7 26.1
2017-Oct-14 00:00N 32°00' W 076°47'1 0.5 1020.3 26.1
2017-Oct-13 23:00N 32°00' W 076°47'1 0.8 1019.9 26.2
2017-Oct-13 22:00N 32°01' W 076°46'1 0.5 1019.6 26.2
2017-Oct-13 21:00N 32°01' W 076°46'1 0.5 1019.3 26.3
2017-Oct-13 20:00N 32°01' W 076°45'1 0.5 1019.3 26.4
2017-Oct-13 19:00N 32°01' W 076°44'1 0.5 1019.3 26.3
2017-Oct-13 17:00N 32°01' W 076°43'1 0.6 1020.2 26.2
2017-Oct-13 16:00N 32°00' W 076°43'1 0.5 1020.8 26.2
2017-Oct-13 15:00N 32°00' W 076°43'0 0.0 1021.1 26.1
2017-Oct-13 14:00N 32°00' W 076°43'1 0.6 1020.5 26.1
2017-Oct-13 13:00N 31°59' W 076°43'1 0.5 1020.2 26.1
2017-Oct-13 12:00N 31°59' W 076°42'1 0.6 1019.4 26.1
2017-Oct-13 11:00N 31°59' W 076°42'1 0.6 1018.9 26.0
2017-Oct-13 10:00N 31°58' W 076°42'1 0.5 1018.3 26.1
2017-Oct-13 09:00N 31°58' W 076°41'1 0.6 1018.0 26.1
2017-Oct-13 08:00N 31°58' W 076°41'1 0.8 1017.9 26.1
2017-Oct-13 07:00N 31°57' W 076°41'1 0.7 1018.1 26.1
2017-Oct-13 05:00N 31°56' W 076°40'1 0.8 1018.4 26.1
2017-Oct-13 04:00N 31°55' W 076°40'1 0.5 1018.5 26.2
2017-Oct-13 03:00N 31°55' W 076°39'1 0.8 1018.5 26.2
2017-Oct-13 02:00N 31°55' W 076°38'1 0.8 1018.4 26.1
2017-Oct-13 01:00N 31°54' W 076°38'1 0.8 1018.2 26.1
2017-Oct-13 00:00N 31°53' W 076°37'1 0.5 1018.0 26.2
2017-Oct-12 23:00N 31°53' W 076°37'1 0.8 1017.4 26.2
2017-Oct-12 22:00N 31°53' W 076°36'1 0.8 1017.1 26.2
2017-Oct-12 21:00N 31°52' W 076°35'1 0.8 1017.0 26.2
2017-Oct-12 20:00N 31°52' W 076°35'1 0.8 1017.1 26.3
2017-Oct-12 19:00N 31°51' W 076°34'1 0.8 1016.8 26.3
2017-Oct-12 18:00N 31°50' W 076°34'   1017.2 26.3
Track history (hours):
 
Tides and Currents Weather Stations Pressure Air Temp Water Temp Dewpoint Dewpoint Depression Visibility Wind Speed Wind Dir Waves Ship Positions

Drifting buoy 41730

Last reported at 2017-Oct-22 18:00 UTC. Time now 2017-Oct-22 19:13 UTC.
Position N 31°18' W 078°28'.

Barometer 1023.3 mb
Water temperature 27.6 ° C

Date/timePositionNaut miles runAvg speedWind from/ knotsBaromVisibWave heightAir tempDewpointWater temp
2017-Oct-22 18:00N 31°18' W 078°28'2 1.7 1023.3 27.6
2017-Oct-22 17:00N 31°17' W 078°29'2 1.7 1024.0 27.6
2017-Oct-22 16:00N 31°17' W 078°31'2 2.0 1024.5 27.6
2017-Oct-22 15:00N 31°16' W 078°33'2 1.6 1024.7 27.6
2017-Oct-22 14:00N 31°14' W 078°34'1 1.3 1024.6 27.6
2017-Oct-22 13:00N 31°13' W 078°35'1 1.3 1024.0 27.6
2017-Oct-22 12:00N 31°12' W 078°35'1 0.8 1023.5 27.6
2017-Oct-22 11:00N 31°11' W 078°36'1 1.3 1023.1 27.5
2017-Oct-22 10:00N 31°10' W 078°37'1 0.8 1023.0 27.6
2017-Oct-22 09:00N 31°10' W 078°37'1 1.2 1022.8 27.6
2017-Oct-22 08:00N 31°09' W 078°38'1 1.2 1022.8 27.6
2017-Oct-22 07:00N 31°08' W 078°40'2 1.7 1023.3 27.7
2017-Oct-22 06:00N 31°08' W 078°41'1 1.2 1023.8 27.7
2017-Oct-22 05:00N 31°07' W 078°43'1 1.3 1024.2 27.7
2017-Oct-22 04:00N 31°06' W 078°43'1 1.3 1024.5 27.8
2017-Oct-22 03:00N 31°05' W 078°44'1 1.3 1024.6 27.8
2017-Oct-22 02:00N 31°04' W 078°44'1 0.6 1024.4 27.8
2017-Oct-22 01:00N 31°03' W 078°44'1 0.8 1023.9 27.8
2017-Oct-22 00:00N 31°02' W 078°45'1 0.6 1023.9 27.8
2017-Oct-21 23:00N 31°02' W 078°45'1 0.8 1023.6 27.8
2017-Oct-21 22:00N 31°01' W 078°46'1 1.3 1023.5 27.8
2017-Oct-21 21:00N 31°00' W 078°46'1 1.2 1023.4 27.8
2017-Oct-21 20:00N 30°59' W 078°47'1 0.8 1023.5 27.9
2017-Oct-21 19:00N 30°59' W 078°48'2 1.6 1023.4 27.9
2017-Oct-21 18:00N 30°58' W 078°49'1 1.3 1023.9 27.9
2017-Oct-21 17:00N 30°56' W 078°50'1 1.3 1024.2 27.9
2017-Oct-21 16:00N 30°55' W 078°50'1 1.3 1024.3 27.9
2017-Oct-21 15:00N 30°54' W 078°51'1 1.2 1024.2 27.9
2017-Oct-21 14:00N 30°53' W 078°51'1 1.2 1024.0 27.9
2017-Oct-21 13:00N 30°52' W 078°51'1 1.2 1023.4 27.9
2017-Oct-21 12:00N 30°50' W 078°51'1 1.2 1022.7 27.9
2017-Oct-21 11:00N 30°49' W 078°51'1 0.8 1022.3 27.9
2017-Oct-21 10:00N 30°49' W 078°52'1 1.2 1021.8 27.9
2017-Oct-21 09:00N 30°47' W 078°52'1 1.3 1021.4 27.9
2017-Oct-21 08:00N 30°46' W 078°52'1 1.3 1021.3 27.9
2017-Oct-21 07:00N 30°45' W 078°53'1 1.3 1021.8 27.9
2017-Oct-21 06:00N 30°44' W 078°53'1 1.3 1022.0 28.0
2017-Oct-21 05:00N 30°43' W 078°54'1 1.2 1022.3 27.9
2017-Oct-21 04:00N 30°41' W 078°54'1 1.2 1022.4 28.0
2017-Oct-21 03:00N 30°40' W 078°54'1 1.2 1022.3 28.0
2017-Oct-21 02:00N 30°39' W 078°54'1 1.3 1021.9 28.0
2017-Oct-21 01:00N 30°38' W 078°53'1 0.6 1021.3 28.0
2017-Oct-21 00:00N 30°37' W 078°53'1 1.2 1021.2 28.0
2017-Oct-20 23:00N 30°36' W 078°53'1 1.2 1020.7 28.0
2017-Oct-20 22:00N 30°35' W 078°53'1 1.2 1020.6 28.0
2017-Oct-20 21:00N 30°34' W 078°53'1 0.8 1020.6 28.0
2017-Oct-20 20:00N 30°33' W 078°54'1 1.3 1020.7 28.0
2017-Oct-20 19:00N 30°32' W 078°55'1 1.2 1020.9 28.0
2017-Oct-20 18:00N 30°31' W 078°55'1 1.2 1021.2 28.0
2017-Oct-20 17:00N 30°29' W 078°55'1 1.2 1022.0 27.9
2017-Oct-20 16:00N 30°28' W 078°55'2 1.8 1022.5 27.9
2017-Oct-20 15:00N 30°26' W 078°55'1 1.2 1022.6 27.9
2017-Oct-20 14:00N 30°25' W 078°55'1 1.3 1022.5 27.9
2017-Oct-20 13:00N 30°24' W 078°54'1 1.3 1021.9 27.8
2017-Oct-20 12:00N 30°23' W 078°53'2 1.8 1021.0 27.7
2017-Oct-20 11:00N 30°21' W 078°53'1 1.3 1020.8 27.7
2017-Oct-20 10:00N 30°20' W 078°53'1 1.2 1020.4 27.7
2017-Oct-20 09:00N 30°19' W 078°53'1 1.2 1020.1 27.7
2017-Oct-20 08:00N 30°17' W 078°53'1 1.2 1020.0 27.7
2017-Oct-20 07:00N 30°16' W 078°53'1 1.2 1020.4 27.7
2017-Oct-20 06:00N 30°15' W 078°53'2 1.8 1020.8 27.7
2017-Oct-20 05:00N 30°13' W 078°53'1 1.2 1020.7 27.8
2017-Oct-20 04:00N 30°12' W 078°53'1 1.3 1020.8 27.8
2017-Oct-20 03:00N 30°11' W 078°52'2 1.9 1020.7 27.8
2017-Oct-20 02:00N 30°09' W 078°52'1 1.2 1020.6 27.8
2017-Oct-20 01:00N 30°08' W 078°52'1 0.8 1020.2 27.9
2017-Oct-20 00:00N 30°07' W 078°51'1 1.3 1019.8 27.9
2017-Oct-19 23:00N 30°06' W 078°50'1 1.3 1019.4 27.9
2017-Oct-19 22:00N 30°05' W 078°50'1 0.8 1019.1 28.0
2017-Oct-19 21:00N 30°04' W 078°49'1 0.8 1018.9 28.0
2017-Oct-19 20:00N 30°04' W 078°49'1 1.2 1018.9 28.0
2017-Oct-19 19:00N 30°02' W 078°49'1 0.8 1019.1 28.0
2017-Oct-19 18:00N 30°02' W 078°48'5 1.2 1019.3 28.0
2017-Oct-19 14:00N 29°57' W 078°47'3 1.1 1020.1 27.9
2017-Oct-19 11:00N 29°54' W 078°45'4 1.1 1018.8 27.9
2017-Oct-19 07:00N 29°51' W 078°41'6 0.6 1018.7 28.0
2017-Oct-18 21:00N 29°51' W 078°34'1 1.0 1018.9 27.9
2017-Oct-18 20:00N 29°51' W 078°33'4 1.0 1018.9 27.9
2017-Oct-18 16:00N 29°54' W 078°30'2 0.7 1021.0 27.8
2017-Oct-18 13:00N 29°56' W 078°29'1 1.2 1020.3 27.9
2017-Oct-18 12:00N 29°56' W 078°28'9 1.7 1019.9 27.9
2017-Oct-18 07:00N 30°02' W 078°20'6 1.9 1018.4 28.0
2017-Oct-18 04:00N 30°06' W 078°16'2 2.4 1019.1 28.0
2017-Oct-18 03:00N 30°08' W 078°14'2 1.7 1019.2 28.0
2017-Oct-18 02:00N 30°08' W 078°12'2 2.0 1019.0 28.0
2017-Oct-18 01:00N 30°10' W 078°10'2 1.7 1018.5 28.0
2017-Oct-18 00:00N 30°10' W 078°08'2 2.4 1018.0 28.0
2017-Oct-17 23:00N 30°11' W 078°06'12 2.3 1017.4 28.1
2017-Oct-17 18:00N 30°17' W 077°54'2 2.4 1016.6 28.1
2017-Oct-17 17:00N 30°18' W 077°52'3 2.9 1017.5 28.1
2017-Oct-17 16:00N 30°20' W 077°50'2 2.1 1018.2 28.1
2017-Oct-17 15:00N 30°22' W 077°49'2 2.1 1018.0 28.1
2017-Oct-17 14:00N 30°24' W 077°47'2 2.5 1018.1 28.1
2017-Oct-17 13:00N 30°26' W 077°47'2 1.9 1017.2 28.1
2017-Oct-17 12:00N 30°28' W 077°46'4 1.9 1016.8 28.2
2017-Oct-17 10:00N 30°32' W 077°45'2 1.8 1015.4 28.2
2017-Oct-17 09:00N 30°34' W 077°45'2 1.9 1014.9 28.2
2017-Oct-17 08:00N 30°35' W 077°44'2 1.8 1014.7 27.9
2017-Oct-17 07:00N 30°37' W 077°44'4 1.8 1015.1 28.1
2017-Oct-17 05:00N 30°41' W 077°44'2 1.8 1014.4 28.3
2017-Oct-17 04:00N 30°43' W 077°44'2 1.9 1014.8 28.3
2017-Oct-17 03:00N 30°44' W 077°43'2 1.8 1014.9 28.4
2017-Oct-17 02:00N 30°46' W 077°43'2 2.4 1014.7 28.4
2017-Oct-17 01:00N 30°49' W 077°43'2 1.8 1014.4 28.4
2017-Oct-17 00:00N 30°50' W 077°43'2 1.8 1014.2 28.5
2017-Oct-16 23:00N 30°52' W 077°43'1 1.2 1013.9 28.5
2017-Oct-16 22:00N 30°53' W 077°43'1 1.3 1013.4 28.5
2017-Oct-16 21:00N 30°55' W 077°43'1 1.3 1013.3 28.6
2017-Oct-16 20:00N 30°56' W 077°42'1 0.8 1013.3 28.7
2017-Oct-16 19:00N 30°56' W 077°41'1 0.8 1013.9 28.8
2017-Oct-16 18:00N 30°57' W 077°41'1 1.2 1014.6 28.8
2017-Oct-16 17:00N 30°58' W 077°40'1 1.0 1015.3 28.7
2017-Oct-16 16:00N 30°58' W 077°38'1 1.2 1016.3 28.6
2017-Oct-16 15:00N 30°58' W 077°37'1 1.0 1016.6 28.5
2017-Oct-16 14:00N 30°58' W 077°36'2 1.5 1016.6 28.4
2017-Oct-16 13:00N 30°58' W 077°34'2 1.7 1016.5 28.4
2017-Oct-16 12:00N 30°58' W 077°32'3 1.5 1015.9 28.4
2017-Oct-16 10:00N 30°58' W 077°29'2 1.7 1015.3 28.3
2017-Oct-16 09:00N 30°57' W 077°27'2 2.1 1015.4 28.3
2017-Oct-16 08:00N 30°57' W 077°25'2 1.5 1015.3 28.3
2017-Oct-16 07:00N 30°57' W 077°23'2 2.1 1015.7 28.3
2017-Oct-16 06:00N 30°58' W 077°20'2 2.1 1016.6 28.3
2017-Oct-16 05:00N 30°58' W 077°18'2 2.0 1017.2 28.4
2017-Oct-16 04:00N 30°59' W 077°16'2 2.0 1017.9 28.4
2017-Oct-16 03:00N 31°01' W 077°14'2 2.0 1018.2 28.4
2017-Oct-16 02:00N 31°02' W 077°13'2 2.4 1018.5 28.4
2017-Oct-16 01:00N 31°04' W 077°11'2 2.4 1018.3 28.4
2017-Oct-16 00:00N 31°05' W 077°09'2 2.4 1017.9 28.3
2017-Oct-15 23:00N 31°07' W 077°07'3 2.9 1017.8 28.3
2017-Oct-15 22:00N 31°10' W 077°05'2 2.4 1017.9 28.2
2017-Oct-15 21:00N 31°11' W 077°04'3 3.2 1018.0 28.3
2017-Oct-15 20:00N 31°14' W 077°01'3 2.9 1018.3 28.4
2017-Oct-15 19:00N 31°16' W 076°59'2 2.4 1018.6 28.4
2017-Oct-15 18:00N 31°18' W 076°58'3 2.6 1019.5 28.3
2017-Oct-15 17:00N 31°20' W 076°56'3 2.9 1020.3 28.2
2017-Oct-15 16:00N 31°23' W 076°55'3 2.6 1021.1 27.8
2017-Oct-15 15:00N 31°25' W 076°53'2 2.1 1021.3 27.6
2017-Oct-15 14:00N 31°27' W 076°52'2 2.1 1021.3 27.3
2017-Oct-15 13:00N 31°29' W 076°51'2 1.9 1021.1 27.1
2017-Oct-15 12:00N 31°31' W 076°50'2 1.9 1020.7 27.2
2017-Oct-15 11:00N 31°32' W 076°50'2 1.9 1020.4 27.2
2017-Oct-15 10:00N 31°34' W 076°49'1 1.3 1020.1 26.9
2017-Oct-15 09:00N 31°35' W 076°49'1 1.3 1019.7 26.8
2017-Oct-15 08:00N 31°37' W 076°48'2 1.9 1019.6 27.2
2017-Oct-15 07:00N 31°38' W 076°47'3 1.3 1019.8 26.6
2017-Oct-15 05:00N 31°41' W 076°46'1 0.8 1021.0 26.4
2017-Oct-15 04:00N 31°41' W 076°46'1 1.3 1021.5 26.4
2017-Oct-15 03:00N 31°43' W 076°45'2 1.8 1022.0 26.5
2017-Oct-15 02:00N 31°44' W 076°45'1 1.2 1021.9 26.6
2017-Oct-15 01:00N 31°46' W 076°45'1 1.3 1021.5 26.6
2017-Oct-15 00:00N 31°47' W 076°44'1 0.6 1021.1 26.6
2017-Oct-14 23:00N 31°47' W 076°44'1 1.2 1020.6 26.8
2017-Oct-14 22:00N 31°49' W 076°44'1 1.2 1020.4 27.0
2017-Oct-14 21:00N 31°50' W 076°44'1 0.6 1020.4 26.8
2017-Oct-14 20:00N 31°50' W 076°44'1 1.3 1020.5 26.8
2017-Oct-14 19:00N 31°52' W 076°45'1 1.2 1020.7 26.8
2017-Oct-14 18:00N 31°53' W 076°45'1 1.3 1021.5 26.8
2017-Oct-14 17:00N 31°54' W 076°46'1 0.6 1022.2 26.4
2017-Oct-14 16:00N 31°55' W 076°46'1 0.6 1022.8 26.3
2017-Oct-14 15:00N 31°55' W 076°46'1 0.6 1023.1 26.2
2017-Oct-14 14:00N 31°56' W 076°46'1 0.8 1023.0 26.2
2017-Oct-14 13:00N 31°56' W 076°46'0 0.0 1022.8 26.1
2017-Oct-14 12:00N 31°56' W 076°46'1 0.8 1022.2 26.1
2017-Oct-14 11:00N 31°57' W 076°47'1 0.6 1021.7 26.1
2017-Oct-14 10:00N 31°58' W 076°47'1 0.8 1021.0 26.0
2017-Oct-14 09:00N 31°58' W 076°47'1 0.5 1020.5 26.0
2017-Oct-14 08:00N 31°58' W 076°48'0 0.0 1020.2 26.0
2017-Oct-14 07:00N 31°58' W 076°48'1 0.8 1020.4 26.1
2017-Oct-14 06:00N 31°59' W 076°49'0 0.0 1020.5 26.1
2017-Oct-14 04:00N 31°59' W 076°49'0 0.0 1021.1 26.1
2017-Oct-14 03:00N 31°59' W 076°49'1 0.8 1021.2 26.1
2017-Oct-14 02:00N 31°59' W 076°48'0 0.0 1021.0 26.1
2017-Oct-14 01:00N 31°59' W 076°48'1 0.8 1020.7 26.1
2017-Oct-14 00:00N 32°00' W 076°47'1 0.5 1020.3 26.1
2017-Oct-13 23:00N 32°00' W 076°47'1 0.8 1019.9 26.2
2017-Oct-13 22:00N 32°01' W 076°46'1 0.5 1019.6 26.2
2017-Oct-13 21:00N 32°01' W 076°46'1 0.5 1019.3 26.3
2017-Oct-13 20:00N 32°01' W 076°45'1 0.5 1019.3 26.4
2017-Oct-13 19:00N 32°01' W 076°44'1 0.5 1019.3 26.3
2017-Oct-13 17:00N 32°01' W 076°43'1 0.6 1020.2 26.2
2017-Oct-13 16:00N 32°00' W 076°43'1 0.5 1020.8 26.2
2017-Oct-13 15:00N 32°00' W 076°43'0 0.0 1021.1 26.1
2017-Oct-13 14:00N 32°00' W 076°43'1 0.6 1020.5 26.1
2017-Oct-13 13:00N 31°59' W 076°43'1 0.5 1020.2 26.1
2017-Oct-13 12:00N 31°59' W 076°42'1 0.6 1019.4 26.1
2017-Oct-13 11:00N 31°59' W 076°42'1 0.6 1018.9 26.0
2017-Oct-13 10:00N 31°58' W 076°42'1 0.5 1018.3 26.1
2017-Oct-13 09:00N 31°58' W 076°41'1 0.6 1018.0 26.1
2017-Oct-13 08:00N 31°58' W 076°41'1 0.8 1017.9 26.1
2017-Oct-13 07:00N 31°57' W 076°41'1 0.7 1018.1 26.1
2017-Oct-13 05:00N 31°56' W 076°40'1 0.8 1018.4 26.1
2017-Oct-13 04:00N 31°55' W 076°40'1 0.5 1018.5 26.2
2017-Oct-13 03:00N 31°55' W 076°39'1 0.8 1018.5 26.2
2017-Oct-13 02:00N 31°55' W 076°38'1 0.8 1018.4 26.1
2017-Oct-13 01:00N 31°54' W 076°38'1 0.8 1018.2 26.1
2017-Oct-13 00:00N 31°53' W 076°37'1 0.5 1018.0 26.2
2017-Oct-12 23:00N 31°53' W 076°37'1 0.8 1017.4 26.2
2017-Oct-12 22:00N 31°53' W 076°36'1 0.8 1017.1 26.2
2017-Oct-12 21:00N 31°52' W 076°35'1 0.8 1017.0 26.2
2017-Oct-12 20:00N 31°52' W 076°35'1 0.8 1017.1 26.3
2017-Oct-12 19:00N 31°51' W 076°34'1 0.8 1016.8 26.3
2017-Oct-12 18:00N 31°50' W 076°34'   1017.2 26.3

Dump ship's entire track history